Regional Weather Roundup
Issued by NWS

Home | Current Version | Previous Version | Graphics & Text | Print | Product List | Glossary On
Versions: 1 2 3 4 5 6 7 8 9 10 11 12 13 14 15 16 17 18 19 20 21 22 23 24 25 26 27 28 29 30 31 32 33 34 35 36 37 38 39 40 41 42 43 44 45 46 47 48 49 50
000
ASUS45 KBOU 280507
RWRCO

WEATHER ROUNDUP FOR COLORADO
NATIONAL WEATHER SERVICE DENVER/BOULDER CO
1100 PM MDT SAT AUG 27 2016

NOTE: "FAIR" INDICATES FEW OR NO CLOUDS BELOW 12000 FEET WITH NO
SIGNIFICANT WEATHER AND/OR OBSTRUCTIONS TO VISIBILITY.

COZ001>005-013-030-031-280600-
...NORTHWEST COLORADO...

CITY           SKY/WX    TMP DP  RH WIND       PRES   REMARKS
CRAIG          FAIR      55  42  61 CALM      30.21R
HAYDEN         FAIR      57  34  41 CALM      30.23S
MEEKER         FAIR      54  43  66 NE3       30.24R
MOUNT WERNER   NOT AVBL
STEAMBOAT SPGS FAIR      55  33  43 CALM      30.26R
WALDEN         FAIR      39  30  70 SE8       30.34S
$$

COZ006>008-011-280600-
...WEST CENTRAL VALLEYS...

CITY           SKY/WX    TMP DP  RH WIND       PRES   REMARKS
GRAND JUNCTION FAIR      68  47  46 SE9       30.15S
MONTROSE       FAIR      61  48  62 SW3       30.25R
EAGLE          FAIR      59  43  55 E7        30.26S
RIFLE          FAIR      62  49  62 SW3       30.19S
DELTA          NOT AVBL
NUCLA          FAIR     N/A N/A N/A S6        30.29S
$$

COZ017>023-064>068-280600-
...SOUTHWEST COLORADO...

CITY           SKY/WX    TMP DP  RH WIND       PRES   REMARKS
DURANGO        FAIR      53  48  83 N7        30.30S
CORTEZ         MOCLDY    57  50  77 NE7       30.25R
PAGOSA SPRINGS FAIR      53  46  75 NE3       30.36R
TELLURIDE      DRIZZLE   47  46  96 SE6       30.45S
WOLF CREEK PAS CLOUDY    36  36 100 CALM      30.60R
$$

COZ009-010-012-014-032>034-037-058>063-280600-
...CENTRAL COLORADO...

CITY           SKY/WX    TMP DP  RH WIND       PRES   REMARKS
ASPEN          FAIR      51  43  74 S7        30.32S
BUENA VISTA    FAIR      50  45  81 CALM      30.34R
COPPER MTN     FAIR      46  32  57 CALM      30.57F
BERTHOUD PASS  FAIR      37  27  65 N8        30.60S
COTTONWOOD PAS FAIR      54  36  50 W3        30.45R
GUNNISON       FAIR      52  46  82 N6        30.38S
KREMMLING      FAIR      50  36  57 SE3       30.31R
LEADVILLE      FAIR      41  35  79 E6        30.43F
MONARCH PASS   FAIR      36  36 100 SW14      30.66F FOG
SALIDA         FAIR      59  42  53 SW9       30.38R
SUNLIGHT       FAIR      48  37  66 CALM      30.53F
WILKERSON PASS FAIR      48  30  49 CALM      30.56S
$$

COZ069>075-280600-
...SAN LUIS VALLEY/SANGRE DE CRISTO MOUNTAINS...

CITY           SKY/WX    TMP DP  RH WIND       PRES   REMARKS
ALAMOSA        MOCLDY    50  44  80 NE6       30.33F
LA VETA PASS   MOCLDY    45  37  76 S13G23    30.46S
SAGUACHE       MOCLDY    52  43  71 NW9       30.36R
$$

COZ035-036-038>040-280600-
...NORTHERN COLORADO FRONT RANGE...

CITY           SKY/WX    TMP DP  RH WIND       PRES   REMARKS
DENVER INTL AP FAIR      60  46  59 S8        30.13R
DMNS CITY PARK   N/A     67  46  46 SW6       30.12S
AURORA         PTCLDY    66  47  50 S9        30.15R
FRONT RANGE AP NOT AVBL
ERIE MUNI ARPT NOT AVBL
BOULDER MUN AP FAIR      64  39  39 SE3       30.13R
CENTENNIAL     MOCLDY    66  45  46 S7        30.16R
BROOMFIELD     NOT AVBL
FORT COLLINS   FAIR      72  39  30 CALM      30.10S
LONGMONT       FAIR      67  43  41 CALM      30.12R
$$

COZ041-046-047-076>085-087-088-280600-
...PIKES PEAK/PALMER DIVIDE AND SOUTHERN FOOTHILLS...

CITY           SKY/WX    TMP DP  RH WIND       PRES   REMARKS
COLO. SPRINGS  MOCLDY    64  45  49 E9        30.24R
A. F. ACADEMY  FAIR      60  46  60 SW3       30.24R
SCHRIEVER AFB  NOT AVBL
ELLICOTT       NOT AVBL
FALCON         MOCLDY    58  46  63 S5        30.28R
FORT CARSON    CLOUDY    63  48  59 NE5       30.19S
LIMON          FAIR      55  52  89 CALM      30.16S
MONUMENT HILL  MOCLDY    55  45  67 S9        30.26F
TRINIDAD       FAIR      63  47  55 W6        30.17F
$$

COZ042>045-048>051-090-091-280600-
...NORTHEAST COLORADO...

CITY           SKY/WX    TMP DP  RH WIND       PRES   REMARKS
GREELEY ARPT   FAIR      64  46  52 SW6       30.10R
AKRON          FAIR      61  47  59 SE9       30.11S
BURLINGTON     FAIR      64  51  62 S13       30.09S
WRAY           NOT AVBL
STERLING       FAIR      61  50  67 W6        30.06S
HOLYOKE        FAIR      63  61  94 SE8       30.08R
FORT MORGAN    FAIR      61  46  57 NE5       30.10S
$$

COZ086-089-092>099-280600-
...SOUTHEAST COLORADO...

CITY           SKY/WX    TMP DP  RH WIND       PRES   REMARKS
PUEBLO         RAIN      69  53  56 N20       30.09F
LA JUNTA       FAIR      71  52  50 CALM      30.06S
LAMAR          FAIR      67  59  75 E8        30.03S
SPRINGFIELD      N/A     64  56  75 S25G35    30.11F
$$



USA.gov is the U.S. government's official web portal to all federal, state and local government web resources and services.